Showing default

GOES 14, 35491

Orbit data source: Space-Track

GOES 14, 35491 is a payload satellite owned by NOAA (US) in GEO that was launched on Sat, 27 Jun 2009 UTC via a DELTA 4M+(4,2) launch vehicle from the Air Force Eastern Test Range (AFETR). Payload-class satellites include a variety of spacecraft equipped with specific instruments for various scientific and technological missions. These include communications satellites like Starlink; space stations such as the ISS; scientific satellites like the Hubble; Earth observation satellites from companies like Planet Labs, Umbra, and HawkEye 360; GPS; miniature CubeSats for education and research; and military/defense satellites.

Loading next visibility...
Identifier
35491, 2009-033A
Orbit
GEO
Last TLE update
15 hours ago
Origin
Manufacturer
Boeing/ES
Mission
On reserve Civil Weather
Bus & Motor
HS-601, R-4D?
Mass
3,209 kg wet, 1,543 kg dry
Launch date (UTC)
2009-06-27 (16 years ago)
Launch vehicle
DELTA 4M+(4,2)
Launch site
Air Force Eastern Test Range (AFETR)
Object type
Payload
Rocket body
Debris
Shape & HBR
Box + 1 Pan + 1 Ant, 8.2 m
Radar Cross Section
14.281 m², Large (>1 m²)

Expand to show TLE details & history

TLE from 15 hours ago
0 GOES 14
1 35491U 09033A   25183.61655664 -.00000061  00000-0  00000-0 0  9993
2 35491   0.7759  87.7982 0002531  65.6763 241.1997  1.00274300  3088
Epoch: 2025-07-02T14:47Z
TLE epoch observation values (Epoch: 2025-07-02T14:47:50.493Z)
Latitude
-0.61609°
Longitude
-108.19432°
Altitude
35,790.562 km
Speed
3.074 km/s
True Right ascension
02h 18m 38s
True Declination
0° 36' 56"
Sunlit
Object was in daylight at epoch
Visualization orbit readout
Latitude
0.10971°
Longitude
115.59842°
Altitude
35,788.148 km
Speed
3.075 km/s
Apparent Right ascension
17h 12m 13s
Apparent Declination
-6° 06' 36"
Sunlit
Object is in daylight
Visualization observer readout
Local Sidereal Time
17:25:53
Azimuth
184.715° SSW
Elevation
43.866°
Doppler factor
1
Orbital elements
Apogee altitude
35,797.632 km
Perigee altitude
35,776.288 km
Semi-major axis
42,165.097 km
Eccentricity
0.00025
Inclination
0.7759°
RAAN
87.7982°
Arg. of periapsis
65.6763°
True anomaly
Unknown
Mean anomaly
241.1997°
Eccentric anomaly
Unknown
Mean motion
0.25068 °/min
Orbital period
1,436.11 mins
BSTAR
0
Loading historical data...
35491 neighbors
Loading maneuver chart data...
Loading SW <> Apogee altitude chart data...
Loading historical data...
Loading historical data...
Loading historical data...
Loading historical data...
Loading historical data...
Loading historical data...
Loading historical data...
Other satellites on launch #33 in the year 2009 (2009-06-27 UTC)

GOES 14 Visibility forecast

Observer location: undefined°, undefined°

Span
Click to sort rows by Start time (UTC) header in descending order
Start Az.
Max El. time (UTC)
Max El. Az.
Max El.
End time (UTC)
End Az.
1440 mins2025-07-03 05:40:20.653Z184.713° SSW2025-07-04 00:24:20.653Z184.796° SSW35.075°2025-07-04 05:40:20.653Z184.701° SSW
|